WetterOnline ( https://www.wetteronline.de )

Wetter aktuell Cham

Aktuelles Wetter: Waldmünchen (499m)

6-stündlich | Neueste Meldungen
Ortszeit Temperatur Wetter
Mo, 20.09. 20:00 10.1° C bedeckt
Mo, 20.09. 14:00 11.6° C bedeckt
Mo, 20.09. 8:00 8.4° C bedeckt
Mo, 20.09. 2:00 9.1° C bedeckt
So, 19.09. 20:00 10.2° C bewölkt
So, 19.09. 14:00 14.0° C leicht bewölkt
So, 19.09. 8:00 10.5° C bedeckt
So, 19.09. 2:00 7.3° C wolkenlos
Ortszeit Temperatur Wetter
Mo, 20.09. 22:00 9.9° C bedeckt
Mo, 20.09. 21:50 9.9° C bedeckt
Mo, 20.09. 21:40 10.0° C bedeckt
Mo, 20.09. 21:30 10.0° C bedeckt
Mo, 20.09. 21:20 10.0° C bedeckt
Mo, 20.09. 21:10 10.1° C bedeckt
Mo, 20.09. 21:00 9.9° C bedeckt
Mo, 20.09. 20:30 10.0° C bedeckt
Mo, 20.09. 20:00 10.1° C bedeckt
Mo, 20.09. 19:30 10.4° C bedeckt
Mo, 20.09. 19:00 10.7° C bedeckt
Ortszeit Relative Feuchte Sichtweite
Mo, 20.09. 20:00 76% 50 km
Mo, 20.09. 14:00 69% 9 km
Mo, 20.09. 8:00 85% 40 km
Mo, 20.09. 2:00 75% 40 km
So, 19.09. 20:00 83% 35 km
So, 19.09. 14:00 74% 40 km
So, 19.09. 8:00 97% 16 km
So, 19.09. 2:00 98% 23 km
Ortszeit Relative Feuchte Sichtweite
Mo, 20.09. 22:00 71% 50 km
Mo, 20.09. 21:50 71% -
Mo, 20.09. 21:40 71% -
Mo, 20.09. 21:30 75% 45 km
Mo, 20.09. 21:20 75% -
Mo, 20.09. 21:10 75% -
Mo, 20.09. 21:00 78% 40 km
Mo, 20.09. 20:30 77% 45 km
Mo, 20.09. 20:00 76% 50 km
Mo, 20.09. 19:30 75% 45 km
Mo, 20.09. 19:00 76% 50 km
Ortszeit Niederschlagsmenge Niederschlagsart
Mo, 20.09. 20:00 0.0 l/m2 in 12 Std. -
Mo, 20.09. 14:00 0.0 l/m2 in 6 Std. -
Mo, 20.09. 8:00 0.0 l/m2 in 12 Std. -
Mo, 20.09. 2:00 0.0 l/m2 in 6 Std. -
So, 19.09. 20:00 0.1 l/m2 in 12 Std. Sprühregen
So, 19.09. 14:00 0.0 l/m2 in 6 Std. -
So, 19.09. 8:00 0.0 l/m2 in 12 Std. -
So, 19.09. 2:00 0.0 l/m2 in 6 Std. -
Ortszeit Niederschlagsmenge Niederschlagsart
Mo, 20.09. 22:00 0.0 l/m2 in 1 Std. -
Mo, 20.09. 21:50 keine Meldung -
Mo, 20.09. 21:40 keine Meldung -
Mo, 20.09. 21:30 0.0 l/m2 in 1 Std. -
Mo, 20.09. 21:20 keine Meldung -
Mo, 20.09. 21:10 keine Meldung -
Mo, 20.09. 21:00 0.0 l/m2 in 1 Std. -
Mo, 20.09. 20:30 0.0 l/m2 in 1 Std. -
Mo, 20.09. 20:00 0.0 l/m2 in 1 Std. -
Mo, 20.09. 19:30 0.0 l/m2 in 1 Std. -
Mo, 20.09. 19:00 0.0 l/m2 in 1 Std. -
Ortszeit Stärke Spitze Richtung
km/h Bft. km/h Grad Sektor
Mo, 20.09. 20:00 4 1 22 360° N
Mo, 20.09. 14:00 9 2 20 50° NO
Mo, 20.09. 8:00 4 1 25 360° N
Mo, 20.09. 2:00 11 2 40 30° NO
So, 19.09. 20:00 18 3 36 10° N
So, 19.09. 14:00 18 3 40 50° NO
So, 19.09. 8:00 14 3 29 30° NO
So, 19.09. 2:00 4 1 22 160° S
Ortszeit Stärke Spitze Richtung
km/h Bft. km/h Grad Sektor
Mo, 20.09. 22:00 9 2 20 360° N
Mo, 20.09. 21:50 9 2 - 360° N
Mo, 20.09. 21:40 7 2 - 20° N
Mo, 20.09. 21:30 7 2 22 10° N
Mo, 20.09. 21:20 7 2 - 10° N
Mo, 20.09. 21:10 9 2 - 10° N
Mo, 20.09. 21:00 4 1 7 330° NW
Mo, 20.09. 20:30 0 0 7 - -
Mo, 20.09. 20:00 4 1 11 360° N
Mo, 20.09. 19:30 4 1 7 350° N
Mo, 20.09. 19:00 4 1 14 360° N
Ortszeit Untergrenze Bedeckung Gattung
total tief tief mittel hoch
Mo, 20.09. 20:00 1410 m 8/8 8/8 - - -
Mo, 20.09. 14:00 810 m 8/8 8/8 - - -
Mo, 20.09. 8:00 720 m 8/8 8/8 - - -
Mo, 20.09. 2:00 840 m 8/8 8/8 - - -
So, 19.09. 20:00 420 m 7/8 8/8 - - -
So, 19.09. 14:00 540 m 3/8 3/8 - - -
So, 19.09. 8:00 120 m 8/8 8/8 - - -
So, 19.09. 2:00 - 0/8 0/8 - - -
Ortszeit Bedeckungsgrad in Achtel und Wolkenuntergrenze
Mo, 20.09. 22:00 8(1470m)
Mo, 20.09. 21:50 8(1470m)
Mo, 20.09. 21:40 8(1470m)
Mo, 20.09. 21:30 8(1470m)
Mo, 20.09. 21:20 8(1470m)
Mo, 20.09. 21:10 8(1470m)
Mo, 20.09. 21:00 8(1440m)
Mo, 20.09. 20:30 8(1410m)
Mo, 20.09. 20:00 8(1410m)
Mo, 20.09. 19:30 8(1410m)
Mo, 20.09. 19:00 8(1380m)
Ortszeit Luftdruck NN (hPa) Tendenz (hPa in 3 Std.)
Mo, 20.09. 20:00 1022 + 1,5
Mo, 20.09. 14:00 1020 + 0,3
Mo, 20.09. 8:00 1019 + 1,1
Mo, 20.09. 2:00 1017 + 0,3
So, 19.09. 20:00 1016 + 0,8
So, 19.09. 14:00 1014 - 1,0
So, 19.09. 8:00 1015 - 0,2
So, 19.09. 2:00 1017 - 0,5
Ortszeit Luftdruck NN (hPa) Tendenz (hPa in 3 Std.)
Mo, 20.09. 22:00 1024 + 1,6
Mo, 20.09. 21:50 1024 keine Meldung
Mo, 20.09. 21:40 1023 keine Meldung
Mo, 20.09. 21:30 1023 + 1,7
Mo, 20.09. 21:20 1023 keine Meldung
Mo, 20.09. 21:10 1023 keine Meldung
Mo, 20.09. 21:00 1023 + 1,6
Mo, 20.09. 20:30 1023 + 1,5
Mo, 20.09. 20:00 1022 + 1,5
Mo, 20.09. 19:30 1022 + 1,4
Mo, 20.09. 19:00 1022 + 1,2
Ortszeit Schneehöhe (cm)
Mo, 20.09. 20:00 -
Mo, 20.09. 14:00 -
Mo, 20.09. 8:00 -
Mo, 20.09. 2:00 -
So, 19.09. 20:00 -
So, 19.09. 14:00 -
So, 19.09. 8:00 -
So, 19.09. 2:00 -
Ortszeit Schneehöhe (cm)
Mo, 20.09. 22:00 -
Mo, 20.09. 21:50 -
Mo, 20.09. 21:40 -
Mo, 20.09. 21:30 -
Mo, 20.09. 21:20 -
Mo, 20.09. 21:10 -
Mo, 20.09. 21:00 -
Mo, 20.09. 20:30 -
Mo, 20.09. 20:00 -
Mo, 20.09. 19:30 -
Mo, 20.09. 19:00 -
Link zu dieser Seite / Seite empfehlen

Das Wetter in ...